"Pseudo-MPEC" for A10DvUi

Created 2021 Nov 26 15:07:07 UT using Find_Orb

Click here for an explanation of pseudo-MPECs

 
 Astrometry: 
     A10DvUi  C2021 11 13^0DEjWDK@ULJ!oi+q-T-V]LV48(wkMB[*A-$P3(Qiwti\lQjyaNBD29
     A10DvUi  C2021 11 13^nZewW0$TkbuRf%en1/E+x'w)rQk1g^%G#VY3ZgYBb1bAQ0R`U^8D29
     A10DvUi  C2021 11 1375B/@g/AstrometryQTG1UKgh^HU=Dq)-9Z=k@sOX0?Ts_A\kO)+D29
     A10DvUi  C2021 11 25.41719303 17 16.23 +32 34 33.5    ~BPFb 18.90oVNEOCPT05
     A10DvUi  C2021 11 25.42042503 17 17.64 +32 34 19.1    ~BPFb 18.97oVNEOCPT05
     A10DvUi  C2021 11 25.43558803 17 24.05 +32 33 07.5    ~BPFb 18.55oVNEOCPT05
     A10DvUi  C2021 11 25.45057203 17 30.42 +32 31 56.7    ~BPFb 18.70oVNEOCPT05
     A10DvUi KC2021 11 25TiMmk)d6mC9M:+Gg4ZQS4Jm0,^_j:DD)rkO!Ve!#bo+Rjh2Av!FiL18
     A10DvUi KC2021 11 251,'pvAou$gfSBredacted;BrwFZlQ7F][iJVeK.6/5`_0UZ4vGBCL18
     A10DvUi KC2021 11 25:CubN2c2GR6#qa%Qin7(click$mclid4b-OX+J@Y6]E]5[``v@?ML18
     A10DvUi KC2021 11 25c3elkX/^!srcZGAeKE;yDxherei9O3o*w\oCN'R2\%^F_,AK1]JML18
     A10DvUi KC2021 11 267n%tr/Q,X[]o*Ce2/G7mGvSi!eKl=tqwnjayvs43h91]Kt+hR8Au734
     A10DvUi KC2021 11 26n,?Rs9JKbn2;D+PWNHp9,u477C)C?w*uq\H0`sLT_hxEUs@K2LF=734
     A10DvUi KC2021 11 267auFZr*/C@WT'+Z[j45@ib;ougIu+;xF6xZb(i,:)+t?Pw-eqv(2734
     A10DvUi KC2021 11 26E#ToR_0P_N?b0bngb.pH]ix4v=+MErLLuUe++$+4CHx+eG%6obYG734
     A10DvUi KC2021 11 26v0e[7dScgY_BxD'*oERH*Hg,MW!fori7#?!h!8,.Ush:o@9QCCBu734
     A10DvUi KC2021 11 26HMw6YKm4:^kZ9Y5QfCa9eU/,n:)k:K@cxS1i]9kqR%`^E^E8I!/o858
     A10DvUi KC2021 11 26;8`V'sexplanationyL(h\%?'wL`70+uUxy/y.X;!?q?D5yJqAP-858
     A10DvUi KC2021 11 26FJ5wPO5`5do3cX2L7MM0xFdB5cla^wn^!]6Qg%ki`5Sr!%/),?[R858
     A10DvUi  C2021 11 26)$AFJ(*!QChY-U^x1M8F1_@+k:fwCDsDIU($,K[O*h^BgppYPjr6P93
     A10DvUi  C2021 11 26e#[YDYVBRk-)pnTQC9s'[`w+tn\d@L)D-bBf?drsVN11K$*R_E*kP93
     A10DvUi  C2021 11 26?R']rSAp`]8'WyPgYRm-=XXAe[;oLZ!Srs,mDFP\M-mM]Z,i'n-_P93

Station data:
(734) Farpoint Observatory, Eskridge  (N38.890107 W96.001400)  US/Kansas.
   Observer G. Hug. 0.69-m reflector + CCD.
(858) Tebbutt Observatory, Edgewood  (N35.093872 W106.220000)  US/New Mexico.
(D29) Purple Mountain Observatory, XuYi Station  (N32.734366 E118.463900)
   China.  Observers H. B. Zhao, B. Li, G. Zhaori, R. Q. Hong, L. F. Hu.
   Measurers H. B. Zhao, B. Li. H. Lu, G. Zhaori. 1.04-m f/1.8 Schmidt + CCD.
(L18) QOS Observatory, Zalistci  (N48.848295 E26.718280)  Ukraine.
(P93) Space Tracking and Communications Center, JAXA  (N34.672353
   E133.544330)  Japan.  Observers S. Okumura, T. Fujiwara. 1.0-m f/3.0
   reflector + CCD.
(T05) ATLAS-HKO, Haleakala  (N20.707573 W156.257010)  US/Hawaii.  Observers
   L. Denneau, A. Heinze, H. Weiland, J. Tonry, H. Flewelling, A.
   Fitzsimmons, D. Young, B. Stalder. Measurers L. Denneau, A. Heinze, J.
   Tonry. 0.5-m f/2.0 Schmidt + CCD.

Orbital elements:  A10DvUi
   Perihelion 2021 Dec 14.356306 +/- 0.00263473 TT =  8:33:04 (JD 2459562.856306)
Epoch 2021 Nov 26.0 TT = JDT 2459544.5   Earth MOID: 0.0714   AutoNEOCP
M 353.33686112 +/- 0.0378237        (J2000 ecliptic)
n   0.36298910 +/- 0.00201633       Peri.  193.49348 +/- 0.0031788
a   1.94628748 +/- 0.00720734       Node   249.48521 +/- 0.0010991
e   0.4596365 +/- 0.00188172        Incl.    9.22746 +/- 0.0282863
P   2.72/991.75d           H 23.7   G  0.15   U  8.6  
q 1.05170264 +/- 0.000230275    Q 2.84087232 +/- 0.0140548
From 22 observations 2021 Nov. 13-26; mean residual 0".27
Residuals in arcseconds: 
211113 D29  .16+  .15-    211125 L18  .35-  .35+    211126 858  .17+  .44+    
211113 D29  .22+  .10-    211125 L18  .14+  .43-    211126 858  .20-  .06-    
211113 D29  .39-  .26+    211125 L18  .02-  .34-    211126 858  .43-  .15+    
211125 T05  .25+  .22-    211126 734  .18+  .06+    211126 P93  .01+  .36-    
211125 T05  .68+  .46+    211126 734  .14+  .08-    211126 P93  .13+  .43+    
211125 T05  .01+  .05-    211126 734  .09-  .14+    211126 P93  .22+  .17-    
211125 T05  .47-  .07-    211126 734  .22+  .32-    
211125 L18  .38-  .00     211126 734  .15-  .02-    

Ephemerides (geocentric):
Date (UTC) HH   RA              Dec         delta   r     elong  mag " sig PA
---- -- -- --  -------------   -----------  ------ ------ -----  --- ---- ---
2021 11 26 15  03 26 58.529   +30 56 04.45  .08612 1.0707 166.3 19.2 .137  95
2021 11 26 16  03 27 19.021   +30 52 29.72  .08601 1.0706 166.4 19.2 .144  95
2021 11 26 17  03 27 39.541   +30 48 54.21  .08590 1.0706 166.4 19.2 .151  96
2021 11 26 18  03 28 00.091   +30 45 17.91  .08580 1.0705 166.5 19.2 .157  96
2021 11 26 19  03 28 20.668   +30 41 40.83  .08569 1.0704 166.6 19.2 .164  96
2021 11 26 20  03 28 41.274   +30 38 02.96  .08558 1.0703 166.6 19.2 .172  96
2021 11 26 21  03 29 01.908   +30 34 24.31  .08548 1.0702 166.7 19.2 .179  96
2021 11 26 22  03 29 22.570   +30 30 44.86  .08537 1.0701 166.8 19.2 .186  96
2021 11 26 23  03 29 43.260   +30 27 04.62  .08527 1.0700 166.9 19.2 .194  96
2021 11 27 00  03 30 03.978   +30 23 23.59  .08516 1.0699 166.9 19.2 .201  96
2021 11 27 01  03 30 24.723   +30 19 41.77  .08506 1.0699 167.0 19.2 .209  97
2021 11 27 02  03 30 45.496   +30 15 59.16  .08495 1.0698 167.1 19.2 .217  97
2021 11 27 03  03 31 06.297   +30 12 15.75  .08485 1.0697 167.2 19.2 .225  97
2021 11 27 04  03 31 27.125   +30 08 31.54  .08475 1.0696 167.2 19.2 .233  97
2021 11 27 05  03 31 47.981   +30 04 46.54  .08464 1.0695 167.3 19.2 .242  97
2021 11 27 06  03 32 08.864   +30 01 00.75  .08454 1.0694 167.4 19.2 .250  97
2021 11 27 07  03 32 29.774   +29 57 14.15  .08444 1.0693 167.5 19.2 .259  98
2021 11 27 08  03 32 50.710   +29 53 26.76  .08434 1.0693 167.5 19.2 .268  98
2021 11 27 09  03 33 11.674   +29 49 38.56  .08424 1.0692 167.6 19.1 .277  98
2021 11 27 10  03 33 32.665   +29 45 49.57  .08413 1.0691 167.7 19.1 .286  98
2021 11 27 11  03 33 53.682   +29 41 59.77  .08403 1.0690 167.8 19.1 .295  98
2021 11 27 12  03 34 14.726   +29 38 09.17  .08393 1.0689 167.8 19.1 .304  99
2021 11 27 13  03 34 35.796   +29 34 17.77  .08383 1.0688 167.9 19.1 .314  99
2021 11 27 14  03 34 56.892   +29 30 25.57  .08373 1.0688 168.0 19.1 .324  99
2021 11 27 15  03 35 18.015   +29 26 32.56  .08363 1.0687 168.1 19.1 .333  99
2021 11 27 16  03 35 39.164   +29 22 38.75  .08353 1.0686 168.1 19.1 .343  99
2021 11 27 17  03 36 00.339   +29 18 44.13  .08343 1.0685 168.2 19.1 .354 100
2021 11 27 18  03 36 21.539   +29 14 48.70  .08334 1.0684 168.3 19.1 .364 100
2021 11 27 19  03 36 42.766   +29 10 52.47  .08324 1.0683 168.4 19.1 .374 100
2021 11 27 20  03 37 04.018   +29 06 55.43  .08314 1.0683 168.5 19.1 .385 100
2021 11 27 21  03 37 25.296   +29 02 57.59  .08304 1.0682 168.5 19.1 .396 100
2021 11 27 22  03 37 46.598   +28 58 58.93  .08294 1.0681 168.6 19.1 .407 101
2021 11 27 23  03 38 07.927   +28 54 59.47  .08285 1.0680 168.7 19.1 .418 101
2021 11 28 00  03 38 29.280   +28 50 59.20  .08275 1.0679 168.8 19.1 .429 101
2021 11 28 01  03 38 50.658   +28 46 58.11  .08265 1.0679 168.8 19.1 .441 101
2021 11 28 02  03 39 12.062   +28 42 56.22  .08256 1.0678 168.9 19.1 .453 101
2021 11 28 03  03 39 33.490   +28 38 53.52  .08246 1.0677 169.0 19.0 .464 102
2021 11 28 04  03 39 54.942   +28 34 50.00  .08237 1.0676 169.1 19.0 .477 102
2021 11 28 05  03 40 16.419   +28 30 45.68  .08227 1.0675 169.2 19.0 .489 102
2021 11 28 06  03 40 37.921   +28 26 40.54  .08218 1.0674 169.2 19.0 .501 102
2021 11 28 07  03 40 59.447   +28 22 34.59  .08208 1.0674 169.3 19.0 .514 102
2021 11 28 08  03 41 20.996   +28 18 27.83  .08199 1.0673 169.4 19.0 .526 102
2021 11 28 09  03 41 42.570   +28 14 20.26  .08190 1.0672 169.5 19.0 .539 103
2021 11 28 10  03 42 04.168   +28 10 11.87  .08180 1.0671 169.6 19.0 .553 103
2021 11 28 11  03 42 25.790   +28 06 02.68  .08171 1.0670 169.6 19.0 .566 103
2021 11 28 12  03 42 47.435   +28 01 52.67  .08162 1.0670 169.7 19.0 .579 103
2021 11 28 13  03 43 09.103   +27 57 41.84  .08152 1.0669 169.8 19.0 .593 103
2021 11 28 14  03 43 30.795   +27 53 30.21  .08143 1.0668 169.9 19.0 .607 104